Location: ????????
(38.4362°N, 22.8767°E)
Time: 14:10:10
(UTC+00:00)

BlueWalker 3 - Visible Passes

Search period start: 21 June 2024 00:00
Search period end: 01 July 2024 00:00
Orbit: 480 x 494 km, 53.2° (Epoch: 21 June)

Date Brightness Start Highest point End Pass type
(mag) Time Alt. Az. Time Alt. Az. Time Alt. Az.
21 Jun 4.7 00:19:48 10° NNW 00:22:37 20° NNE 00:25:25 10° ENE visible
21 Jun 1.7 01:57:22 10° NW 02:01:05 66° SW 02:04:47 10° SE visible
21 Jun 3.3 18:55:14 10° WSW 18:58:48 41° NW 19:02:22 10° NE visible
21 Jun 5.3 20:36:24 10° NW 20:37:47 12° NNW 20:39:10 10° N visible
21 Jun 4.7 23:54:09 10° NNW 23:56:53 19° NNE 23:59:37 10° ENE visible
22 Jun 1.7 01:31:40 10° NW 01:35:23 73° SW 01:39:06 10° SE visible
22 Jun 3.2 18:29:29 10° WSW 18:33:04 44° NW 18:36:41 10° NE visible
22 Jun 5.2 20:10:30 10° NW 20:12:01 12° NNW 20:13:33 10° N visible
22 Jun 4.7 23:28:29 10° NNW 23:31:08 18° NNE 23:33:47 10° ENE visible
23 Jun 1.7 01:05:57 10° NW 01:09:41 79° SW 01:13:24 10° SE visible
23 Jun 5.2 19:44:36 10° NW 19:46:16 12° NNW 19:47:55 10° N visible
23 Jun 4.7 23:02:49 10° NNW 23:05:23 17° NNE 23:07:57 10° ENE visible
24 Jun 1.7 00:40:13 10° NW 00:43:58 86° SW 00:44:32 62° SE visible
24 Jun 5.1 19:18:43 10° NW 19:20:30 13° NNW 19:22:17 10° N visible
24 Jun 4.7 22:37:09 10° NNW 22:39:37 17° NNE 22:42:06 10° ENE visible
25 Jun 3.4 00:14:30 10° NW 00:16:23 28° NW 00:16:23 28° NW visible
25 Jun 5.0 18:52:49 10° NW 18:54:43 13° NNW 18:56:37 10° N visible
25 Jun 4.7 22:11:28 10° NNW 22:13:51 16° NNE 22:15:42 12° NE visible
25 Jun 4.0 23:48:46 10° NW 23:49:57 19° NW 23:49:57 19° NW visible
26 Jun 4.9 18:26:55 10° NW 18:28:56 14° NNW 18:30:57 10° NNE visible
26 Jun 4.7 21:45:47 10° NNW 21:48:04 15° NNE 21:49:47 12° NE visible
26 Jun 4.2 23:23:01 10° NW 23:24:03 18° NW 23:24:03 18° NW visible
27 Jun 4.7 21:20:05 10° NNW 21:22:16 15° NNE 21:24:07 11° NE visible
27 Jun 4.3 22:57:17 10° NW 22:58:24 19° NW 22:58:24 19° NW visible
28 Jun 4.7 20:54:23 10° NNW 20:56:28 14° NNE 20:58:33 10° NE visible
28 Jun 4.2 22:31:32 10° NW 22:32:55 21° NW 22:32:55 21° NW visible
29 Jun 4.6 20:28:41 10° NNW 20:30:39 14° NNE 20:32:38 10° NE visible
29 Jun 4.0 22:05:47 10° NW 22:07:32 25° NNW 22:07:32 25° NNW visible
30 Jun 4.6 20:02:58 10° N 20:04:50 13° NNE 20:06:42 10° NE visible
30 Jun 3.6 21:40:01 10° NW 21:42:12 31° NNW 21:42:12 31° NNW visible
